sat.trackr.live / text

‹ back to catalog

STARLINK-30931

NORAD 58413 · 2023-180M

PAYLOAD ACTIVE UNKNOWN

§ Identity

Operator
Country
US
Launch date
2023-11-22
Launch site
AFETR
Launch vehicle
Mass (kg)
RCS (m²)

Purposes: comms

External: N2YO · Heavens-Above · Gunter

§ Orbital elements

Epoch: 2026-05-24T21:45:19.452096Z

Period
94.27 min
Inclination
43.0041°
Eccentricity
0.0001363
Mean motion
15.27568897 rev/d
Perigee alt
482.1 km
Apogee alt
484.0 km
Semi-major
6,861.2 km
B*
1.0486e-4
RAAN
330.8618°
Arg perigee
266.6102°
Mean anomaly
93.4594°
Rev number
13,941

§ Raw data

STARLINK-309311 58413U 23180M   26144.90647514  .00002624  00000+0  10486-3 0  99932 58413  43.0041 330.8618 0001363 266.6102  93.4594 15.27568897139410

JSON: /api/v1/satellites/58413 · /tle

For live sub-satellite position, see the globe view (requires WebGL).

§ Visibility from observer

Set your observer location to see the next 7 days of passes ≥ 10°. The values pass through the URL so the page stays shareable.

No JS? Fill the form by hand. The geolocation button needs JavaScript.